Regional Weather Roundup
Issued by NWS

Home | Current Version | Previous Version | Graphics & Text | Print | Product List | Glossary On
Versions: 1 2 3 4 5 6 7 8 9 10 11 12 13 14 15 16 17 18 19 20 21 22 23 24 25 26 27 28 29 30 31 32 33 34 35 36 37 38 39 40 41 42 43 44 45 46 47 48 49 50
000
ASUS43 KDMX 020407
RWRIA

WEATHER ROUNDUP FOR IOWA
NATIONAL WEATHER SERVICE DES MOINES IA
1100 PM CDT FRI AUG 01 2014

NOTE: "FAIR" INDICATES FEW OR NO CLOUDS BELOW 12,000 FEET WITH NO
SIGNIFICANT WEATHER AND/OR OBSTRUCTIONS TO VISIBILITY.

* - THESE STATIONS ARE NOT NWS STATIONS...THUS NOT UNDER NWS
QUALITY CONTROL.  THEY ALSO DO NOT REPORT WEATHER SUCH
AS PRECIPITATION OR FOG.

IAZ001>003-012>014-020>022-031>034-043>046-020500-
   NORTHWEST IOWA

CITY           SKY/WX    TMP DP  RH WIND       PRES   REMARKS
CARROLL *      MOCLDY    61  59  94 CALM      30.12R
CHEROKEE *     CLEAR     64  63  94 CALM      30.11S
DENISON *      CLEAR     63  63 100 E3        30.10R
LE MARS *      CLEAR     63  59  88 CALM      30.12R
ORANGE CITY *  CLEAR     68  57  68 CALM      30.12R
SHELDON *      CLEAR     63  59  88 CALM      30.11R
SIOUX CITY     CLEAR     65  61  87 CALM      30.11R
SPENCER        CLEAR     64  60  87 SE3       30.12R
STORM LAKE *   MOCLDY    63  63 100 CALM      30.13R
$$

IAZ055>058-069>071-079>083-090>094-020500-
   SOUTHWEST IOWA

CITY           SKY/WX    TMP DP  RH WIND       PRES   REMARKS
ATLANTIC *     CLEAR     64  63  94 N5        30.11R
AUDUBON *      CLEAR     63  61  94 CALM      30.13S
CLARINDA *     CLEAR     64  64 100 CALM      30.11S
COUNCIL BLFS *   N/A     70  64  83 E8        30.10S
CRESTON *      CLEAR     68  63  83 E8        30.12R
HARLAN  *      CLEAR     64  63  94 CALM      30.15R
LAMONI         CLEAR     72  62  71 E3        30.11R
RED OAK *      CLEAR     66  64  94 CALM      30.11R
SHENANDOAH *   CLEAR     66  64  94 CALM      30.11R
$$

IAZ047>049-059>061-072>074-084-020500-
   CENTRAL IOWA

CITY           SKY/WX    TMP DP  RH WIND       PRES   REMARKS
AMES           CLEAR     63  61  93 CALM      30.10S
ANKENY *       CLEAR     64  61  88 CALM      30.10S
CHARITON *     CLEAR     68  61  77 E3        30.11S
DES MOINES     CLEAR     73  60  63 SE5       30.10R
GRINNELL*      CLEAR     66  61  82 CALM      30.11S
KNOXVILLE *    CLEAR     70  61  73 CALM      30.09S
MARSHALLTOWN   CLEAR     67  63  87 CALM      30.10R
PELLA *        CLEAR     68  61  77 CALM      30.11R
PERRY *          N/A     63  61  94 CALM      30.11S
$$

IAZ004>006-015-016-023>025-035-036-020500-
   NORTH CENTRAL IOWA

CITY           SKY/WX    TMP DP  RH WIND       PRES   REMARKS
ALGONA *       CLEAR     70  64  83 SE5       30.11S
CLARION *      CLEAR     63  61  94 CALM      30.11S
ESTHERVILLE    CLEAR     62  59  90 CALM      30.11S
FORT DODGE *   CLEAR     63  59  88 CALM      30.12R
MASON CITY     CLEAR     62  60  93 CALM      30.13R
FOREST CITY *  CLEAR     63  63 100 CALM      30.11S FOG
IOWA FALLS *     N/A     64  61  88 CALM      30.12R
$$

IAZ007>011-017>019-026>030-037>042-050>054-066-020500-
   NORTHEAST IOWA

CITY           SKY/WX    TMP DP  RH WIND       PRES   REMARKS
CEDAR RAPIDS   MOCLDY    67  64  90 CALM      30.10R
CHARLES CITY * CLEAR     63  59  88 S3        30.12S
CLINTON *      PTCLDY    68  63  83 E15G21    30.16R
DECORAH *      CLEAR     66  61  82 CALM      30.10S
DUBUQUE        CLEAR     67  55  65 E13       30.13R
MONTICELLO *   CLEAR     63  63 100 CALM      30.11R
OELWEIN *      CLEAR     64  64 100 CALM      30.11F
WATERLOO       CLEAR     66  63  90 CALM      30.09S
$$

IAZ064-065-067-068-078-020500-
   EAST CENTRAL IOWA

CITY           SKY/WX    TMP DP  RH WIND       PRES   REMARKS
DAVENPORT      CLEAR     66  61  84 S9        30.12R
IOWA CITY      PTCLDY    68  62  81 CALM      30.11R
MT. PLEASANT * CLEAR     66  63  88 SW3       30.11R
MUSCATINE *    CLEAR     68  63  83 S5        30.11R
QUAD CITIES    CLEAR     67  62  84 CALM      30.11R
$$

IAZ062-063-075>077-085>089-095>099-020500-
   SOUTHEAST IOWA

CITY           SKY/WX    TMP DP  RH WIND       PRES   REMARKS
BURLINGTON     PTCLDY    64  63  96 W3        30.10R
FAIRFIELD *    CLEAR     66  63  88 E6        30.11R
FORT MADISON * CLEAR     64  64 100 E3        30.12R
KEOKUK *       PTCLDY    64  61  88 N3        30.09F
OSKALOOSA *      N/A     68  63  83 CALM      30.11R
CENTERVILLE *  CLEAR     63  63 100 CALM      30.12S
OTTUMWA        CLEAR     64  62  93 E3        30.10R
WASHINGTON *   CLEAR     66  64  94 S6        30.11R
$$

ABBREVIATIONS USED IN REMARKS
   TC - TEMPERATURES IN CELSIUS
  WCI - WIND CHILL INDEX
   HX - HEAT INDEX
  VSB - VISIBILITY
$$



USA.gov is the U.S. government's official web portal to all federal, state and local government web resources and services.